Погода в Теберде

Россия / Карачаево-Черкесская Республика     43°26′37″N   41°44′29″E
темп.,
°C
ветер,
м/с
пор.,
м/с
влажн.,
%
обл.,
%
осадки,
мм/ч
давл.,
гПа
погр.,
м
13 мая, чт
чт1300:00+1ююз55585 0.0 101762
03:00+1ю55571 0.0 101756
06:00+4ю45590 0.0 101658
09:00+13ю26392 0.0 10131854
12:00+15ю37332 0.0 10142628
15:00+15ююз36271 0.0 10142408
18:00+12юз115236 0.0 101527
21:00+6ю4343100 0.0 101938
14 мая, пт
пт1400:00+6ююз543495 0.0 101942
03:00+6ююз43400 0.0 101937
06:00+7ююз33470 0.0 101833
09:00+16св12301 0.0 10151780
12:00+19ссв142965 0.0 10142993
15:00+17с223691 0.0 10132016
18:00+13вюв116673 0.3 101633
21:00+7ююв348493 0.6 102050
15 мая, сб
сб1500:00+6ююз447159 0.0 101951
03:00+6ююз446467 0.0 101943
06:00+8ююз32490 0.0 101831
09:00+15св22340 0.0 10161174
12:00+17ссв44355 0.0 10152458
15:00+13ссв446961 2.3 1016504
18:00+8вюв1192100 8.1 1018164
21:00+7ююз228616 8.3 101819
16 мая, вс
вс1600:00+6ююз448218 0.0 101641
03:00+6ююз437978 0.0 101639
06:00+7ююз337072 0.0 101438
09:00+15ссв113699 0.0 1010984
12:00+18ссв253495 0.0 10082361
15:00+17ссв334783 0.5 10081514
18:00+13всв127564 2.7 1009134
21:00+8ю4379100 3.0 101138
17 мая, пн
пн1700:00+8ююз447921 0.0 101149
03:00+7ююз55730 0.0 101155
06:00+9ююз44660 0.0 101055
09:00+17ююв123214 0.0 10082300
12:00+18св2532100 0.0 10073287
15:00+16зюз034879 1.3 10081232
18:00+9св118545 1.4 1013327
21:00+7ююз328091 1.6 101324